CAPE
0 0 0 0 0 0 1 0 0 1 0 0 1 2 1 0 2 2 0 0 0 1 0 0 0 0 0 0 0 0 0 0 0 0 0 0 0 0 0 0 0 0 0
0 0 0 0 0 0 0 0 0 0 1 0 0 0 1 0 0 1 0 1 1 0 0 0 0 0 0 0 0 0 0 0 0 0 0 0 0 0 0 0 0 0 0
0 0 0 0 0 0 0 0 1 2 0 1 0 0 1 1 0 2 1 0 0 0 0 0 1 0 0 0 0 0 0 0 0 0 0 0 0 0 0 0 0 0 0
0 0 1 0 1 0 0 1 0 2 2 1 1 0 0 2 1 3 2 1 0 1 2 2 0 0 0 0 0 0 0 0 0 0 0 0 0 0 0 0 0 0 0
0 1 0 2 1 2 3 1 2 2 2 2 1 0 0 2 0 4 2 1 0 2 2 0 0 0 0 0 0 0 0 0 0 0 0 0 0 0 0 0 0 0 0
0 1 1 0 5 2 2 2 2 2 1 1 2 2 0 2 0 0 1 2 2 2 1 0 0 0 0 0 0 0 0 0 0 0 0 0 0 0 0 0 0 0 0
0 0 0 1 3 3 2 2 3 3 4 4 0 2 1 2 0 0 0 2 3 1 0 0 0 0 0 0 0 0 0 0 0 0 0 0 0 0 0 0 0 0 0
0 0 0 4 3 1 1 3 1 2 3 3 4 3 3 1 13 0 0 1 1 2 0 0 0 0 0 0 0 0 0 0 0 0 0 0 0 0 0 0 0 0 0
0 0 0 2 3 2 2 3 3 2 2 1 2 5 6 4 1 0 1 2 2 1 0 0 0 0 0 0 0 0 0 0 0 0 0 0 0 0 0 0 0 0 0
0 0 0 2 2 1 1 1 2 2 1 2 1 2 4 5 1 0 2 4 4 3 1 0 0 0 0 0 0 0 0 0 0 0 0 0 0 0 0 0 0 0 0
0 0 0 0 2 2 2 1 0 0 2 1 1 2 3 3 3 2 0 2 4 4 2 2 1 0 0 0 0 0 0 0 0 0 0 0 0 0 0 0 0 0 0
0 0 0 0 0 1 2 1 1 0 1 1 1 1 1 1 1 3 3 2 2 3 3 2 1 0 0 0 0 0 0 0 0 0 0 0 0 0 0 0 0 0 0
0 0 0 0 0 0 1 1 1 1 1 1 0 0 1 0 0 0 2 3 2 0 1 0 0 0 0 0 0 0 0 0 0 0 0 0 0 0 0 2 3 3 5
0 0 0 0 0 0 1 2 1 1 1 1 1 1 1 1 0 1 1 2 2 0 0 0 0 0 0 0 0 0 0 0 0 0 0 0 0 0 0 0 0 3 0
0 0 0 0 0 0 0 1 0 1 1 1 1 1 1 1 1 2 2 0 0 0 0 0 0 0 0 0 0 0 0 0 0 0 0 0 0 0 0 0 0 0 0
0 0 0 0 0 0 0 1 0 0 0 0 0 0 0 0 0 0 0 0 0 0 0 0 0 0 0 0 0 0 0 0 0 0 0 0 0 0 0 0 0 0 0
0 0 0 0 0 0 0 0 1 0 0 0 0 0 0 0 0 0 0 0 0 0 0 0 1 0 0 0 0 0 0 0 0 0 0 0 0 0 0 0 0 1 2
0 0 0 0 0 0 0 0 0 1 1 0 0 0 0 0 0 0 0 0 0 0 1 2 2 2 1 1 0 1 0 0 0 0 0 0 0 0 0 0 1 1 4
0 0 0 0 0 0 0 0 0 0 0 0 0 0 0 0 0 0 0 0 1 1 1 1 1 1 1 1 1 1 0 0 0 0 0 1 1 1 1 1 2 1 0
0 0 0 0 0 0 0 0 0 0 0 0 0 1 1 0 0 0 0 0 0 1 1 1 2 1 2 3 2 2 1 1 1 1 0 0 1 2 2 2 3 2 2
0 0 0 0 0 0 0 0 0 0 0 0 0 0 0 0 0 0 0 0 0 0 1 2 2 3 4 3 1 2 0 0 1 1 0 0 0 1 1 3 2 1 2
0 0 0 0 0 0 0 0 0 0 0 0 0 0 0 0 0 0 0 0 0 1 1 1 1 2 2 2 2 1 0 1 1 1 1 0 1 2 3 1 1 1 3
0 0 0 0 0 0 0 1 0 0 0 0 0 0 0 0 0 0 0 0 0 1 1 1 1 3 0 0 2 2 1 0 2 0 0 1 0 0 0 1 2 1 0
0 0 0 0 0 0 0 0 0 0 0 0 0 0 0 0 0 0 0 0 1 1 1 0 1 1 3 4 7 4 4 3 3 3 1 0 0 1 0 1 1 2 3
0 0 0 0 0 0 0 0 0 0 0 0 0 0 0 0 0 0 0 0 0 1 1 1 4 2 2 3 3 3 3 0 1 2 1 0 0 0 0 0 0 0 1
0 0 0 0 0 0 0 1 0 0 0 0 0 0 0 0 0 0 0 0 0 2 1 1 3 3 2 3 3 2 1 0 1 1 1 0 0 0 0 0 0 2 1
CIN
-0 -0 -0 -0 -0 -0 -0 -0 -0 -0 -0 -0 -0 -0 -0 -0 -0 -0 -0 -0 -0 -0 -0 -0 -0 -0 -0 -0 -0 -0 -0 -0 -0 -0 -0 -0 -0 -0 -0 -0 -0 -0 -0
-0 -0 -0 -0 -0 -0 -0 -0 -0 -0 -1 -0 -0 -0 -0 -0 -0 -0 -0 -0 -0 -0 -0 -0 -0 -0 -0 -0 -0 -0 -0 -0 -0 -0 -0 -0 -0 -0 -0 -0 -0 -0 -0
-0 -0 -0 -1 -0 -0 -0 -0 -0 -0 -3 -0 -0 -0 -0 -0 -0 -0 -0 -0 -0 -0 -0 -0 -0 -0 -0 -0 -0 -0 -0 -0 -0 -0 -0 -0 -0 -0 -0 -0 -0 -0 -0
-0 -0 -1 -1 -0 -0 -0 -0 -0 -0 -0 -0 -0 -0 -0 -0 -0 -0 -0 -0 -0 -0 -0 -0 -0 -0 -0 -0 -0 -0 -0 -0 -0 -0 -0 -0 -0 -0 -0 -0 -0 -0 -0
-0 -0 -0 -0 -0 -0 -0 -0 -0 -0 -0 -0 -0 -0 -0 -0 -0 -0 -0 -0 -0 -0 -0 -0 -0 -0 -0 -0 -0 -0 -0 -0 -0 -0 -0 -0 -0 -0 -0 -0 -0 -0 -0
-0 -1 -1 -0 -0 -0 -0 -0 -0 -0 -0 -0 -0 -0 -0 -0 -0 -0 -3 -0 -0 -0 -0 -0 -0 -0 -0 -0 -0 -0 -0 -0 -0 -0 -0 -0 -0 -0 -0 -0 -0 -0 -0
-0 -0 -0 -0 -0 -0 -0 -0 -0 -0 -0 -0 -0 -0 -0 -0 -0 -0 -0 -0 -0 -0 -0 -0 -0 -0 -0 -0 -0 -0 -0 -0 -0 -0 -0 -0 -0 -0 -0 -0 -0 -0 -0
-0 -0 -0 -0 -0 -0 -0 -0 -0 -0 -0 -0 -0 -0 -0 -0 -5 -0 -0 -0 -0 -0 -0 -0 -0 -0 -0 -0 -0 -0 -0 -0 -0 -0 -0 -0 -0 -0 -0 -0 -0 -0 -0
-0 -0 -0 -0 -0 -0 -0 -0 -0 -0 -0 -0 -0 -0 -0 -0 -4 -0 -0 -0 -0 -0 -0 -0 -0 -0 -0 -0 -0 -0 -0 -0 -0 -0 -0 -0 -0 -0 -0 -0 -0 -0 -0
-0 -0 -0 -0 -0 -0 -0 -0 -0 -0 -0 -0 -0 -0 -0 -0 -0 -0 -0 -0 -0 -0 -0 -0 -0 -0 -0 -0 -0 -0 -0 -0 -0 -0 -0 -0 -0 -0 -0 -0 -0 -0 -0
-0 -0 -0 -0 -0 -0 -0 -0 -0 -0 -0 -0 -0 -0 -0 -0 -0 -0 -0 -0 -0 -0 -0 -0 -0 -0 -0 -0 -0 -0 -0 -0 -0 -0 -0 -0 -0 -0 -0 -0 -0 -0 -0
-0 -0 -0 -0 -0 -0 -0 -0 -0 -0 -0 -0 -0 -0 -0 -0 -0 -0 -0 -0 -0 -0 -0 -0 -0 -0 -0 -0 -0 -0 -0 -0 -0 -0 -0 -0 -0 -0 -0 -0 -0 -0 -0
-0 -0 -0 -0 -0 -0 -0 -0 -0 -0 -0 -0 -0 -0 -0 -0 -0 -0 -0 -0 -0 -0 -0 -0 -0 -0 -0 -0 -0 -0 -0 -0 -0 -0 -0 -0 -0 -0 -2 -13 -10 -11 -7
-0 -0 -0 -0 -0 -0 -0 -0 -0 -0 -0 -0 -0 -0 -0 -0 -0 -0 -0 -0 -0 -0 -0 -0 -0 -0 -0 -0 -0 -0 -0 -0 -0 -0 -0 -0 -0 -0 -0 -0 -8 -12 -0
-0 -0 -0 -0 -0 -0 -0 -0 -0 -0 -0 -0 -0 -0 -0 -0 -0 -0 -0 -0 -0 -0 -0 -0 -0 -0 -0 -0 -0 -0 -0 -0 -0 -0 -0 -0 -0 -0 -0 -0 -0 -0 -5
-0 -0 -0 -0 -0 -0 -0 -0 -0 -0 -0 -0 -0 -0 -0 -0 -0 -0 -0 -0 -0 -0 -0 -0 -0 -0 -0 -0 -0 -0 -0 -0 -0 -0 -0 -0 -0 -0 -0 -0 -0 -0 -0
-0 -0 -0 -0 -0 -0 -0 -0 -0 -0 -0 -0 -0 -0 -0 -0 -0 -0 -0 -0 -0 -0 -0 -0 -0 -0 -0 -0 -0 -0 -0 -0 -0 -0 -0 -0 -0 -0 -0 -0 -0 -0 -0
-0 -0 -0 -0 -0 -0 -0 -0 -0 -6 -0 -0 -0 -0 -0 -0 -0 -0 -0 -0 -0 -0 -0 -0 -0 -0 -0 -0 -0 -0 -0 -0 -0 -0 -0 -0 -0 -0 -0 -0 -0 -0 -0
-0 -0 -0 -0 -0 -0 -0 -0 -0 -0 -0 -0 -0 -0 -0 -0 -0 -0 -0 -0 -0 -0 -0 -0 -0 -0 -0 -0 -0 -0 -0 -0 -0 -0 -0 -0 -0 -0 -0 -0 -0 -0 -0
-0 -0 -0 -0 -0 -0 -0 -0 -0 -0 -0 -0 -0 -0 -0 -0 -0 -0 -0 -0 -0 -0 -0 -0 -0 -0 -0 -0 -0 -0 -0 -0 -0 -0 -0 -0 -0 -0 -0 -0 -0 -0 -0
-0 -0 -0 -0 -0 -0 -0 -0 -0 -0 -0 -0 -0 -0 -0 -0 -0 -0 -0 -0 -0 -0 -0 -0 -0 -0 -0 -0 -0 -0 -0 -0 -0 -0 -0 -0 -0 -0 -0 -0 -0 -0 -0
-0 -0 -0 -0 -0 -0 -0 -0 -0 -0 -0 -0 -0 -0 -0 -0 -0 -0 -0 -0 -0 -0 -0 -0 -0 -0 -0 -0 -0 -0 -0 -0 -0 -0 -0 -0 -0 -0 -1 -0 -0 -0 -0
-0 -0 -0 -0 -0 -0 -0 -3 -0 -0 -0 -0 -0 -0 -0 -0 -0 -0 -0 -0 -0 -0 -0 -0 -0 -0 -0 -0 -0 -0 -0 -0 -0 -0 -0 -0 -0 -0 -0 -0 -0 -0 -0
-0 -0 -0 -0 -0 -0 -0 -0 -1 -0 -0 -0 -0 -0 -0 -0 -0 -0 -0 -0 -0 -0 -0 -0 -0 -0 -0 -0 -0 -0 -0 -0 -0 -0 -0 -0 -0 -0 -0 -0 -0 -0 -0
-0 -0 -0 -0 -0 -0 -0 -2 -1 -0 -0 -0 -0 -0 -0 -0 -0 -0 -0 -0 -0 -0 -0 -0 -0 -0 -0 -0 -0 -0 -0 -0 -0 -0 -0 -0 -0 -0 -0 -0 -0 -0 -0
-0 -0 -0 -0 -0 -0 -0 -4 -2 -0 -0 -0 -0 -0 -0 -0 -0 -0 -0 -0 -0 -0 -0 -0 -0 -0 -0 -0 -0 -0 -0 -0 -0 -0 -0 -0 -0 -0 -0 -0 -0 -0 -0
Wind_Speed
49 50 51 52 53 52 52 52 53 53 52 51 50 49 46 43 41 29 26 23 23 21 16 15 11 12 18 22 23 22 23 21 23 18 16 16 17 19 21 24 26 28 30
50 51 52 53 53 54 55 55 56 56 55 56 55 54 50 46 43 31 27 22 20 19 15 10 12 18 12 11 13 15 22 18 20 19 18 19 19 21 23 25 27 29 31
51 52 54 55 56 56 57 58 57 57 58 58 56 54 53 51 46 36 31 28 23 21 18 14 11 12 10 10 11 12 13 13 17 19 20 20 21 23 25 25 28 30 30
50 52 54 55 56 57 57 59 60 59 59 58 56 54 53 50 48 40 34 30 27 24 21 16 12 13 12 12 11 9 9 10 15 18 20 21 22 23 25 27 30 29 32
50 52 53 55 56 56 56 58 58 58 58 57 55 53 51 48 47 44 36 32 28 25 22 20 16 14 13 13 12 9 8 12 14 18 22 23 24 26 26 26 28 29 29
48 51 54 55 57 57 56 57 58 58 57 57 54 52 49 48 46 42 37 36 32 27 25 20 16 15 14 12 10 8 7 9 14 18 21 23 25 25 25 25 26 29 29
48 49 53 55 56 56 55 55 56 55 54 53 48 45 46 45 45 38 36 35 31 27 24 21 16 15 13 11 11 8 7 9 12 18 22 23 25 23 23 25 26 26 27
48 49 50 53 54 54 54 53 54 52 51 48 42 39 40 40 36 31 31 30 28 26 23 19 17 14 13 11 10 9 9 13 14 18 21 23 23 23 22 25 26 27 27
48 49 49 50 53 52 53 53 53 50 48 45 41 35 33 32 27 23 24 25 23 22 21 16 16 13 11 10 8 9 11 13 13 17 19 20 21 22 23 25 27 28 29
46 47 47 45 50 50 50 52 52 51 46 42 37 31 28 26 22 18 20 21 20 19 16 15 12 10 8 6 8 8 14 16 16 21 22 23 24 25 25 23 24 25 25
43 40 42 41 46 49 49 50 51 50 44 41 33 29 26 20 14 13 12 20 17 18 19 14 11 10 5 4 6 11 16 15 20 22 22 23 22 23 23 22 21 21 23
41 41 41 37 43 45 47 49 49 46 42 36 31 29 25 18 15 9 6 6 9 12 8 7 9 4 5 9 12 15 13 15 18 18 21 20 24 24 24 25 22 22 23
42 43 41 39 35 36 45 46 48 47 42 38 34 30 22 20 15 15 6 5 1 5 5 7 5 8 11 13 11 11 10 12 16 17 21 21 23 24 24 23 23 23 23
43 43 41 41 40 37 37 34 43 44 44 41 35 28 25 21 18 13 10 6 6 5 8 10 10 10 10 10 10 10 11 13 17 20 20 21 22 23 23 23 24 25 24
42 42 43 42 41 38 33 36 33 23 30 34 31 27 24 21 18 18 14 12 12 12 11 11 11 11 10 11 12 13 14 16 18 19 20 20 21 21 22 22 22 23 23
42 42 42 42 42 39 35 31 32 36 37 14 20 24 22 23 21 19 18 17 16 15 16 15 14 14 14 15 15 15 16 17 18 19 20 20 21 22 23 24 24 25 25
41 41 41 41 41 40 38 35 35 32 37 38 39 24 22 23 24 24 22 22 23 21 20 19 17 17 17 18 18 18 18 19 20 20 20 22 22 23 24 25 25 25 26
39 39 40 40 40 39 39 38 37 36 37 34 34 34 32 30 27 26 25 24 23 22 21 21 20 20 20 21 21 21 21 22 22 22 23 23 22 23 24 25 25 26 25
39 38 37 38 38 38 38 38 37 37 36 36 34 34 32 31 30 28 28 27 26 25 25 24 23 23 22 22 22 23 22 22 23 23 23 24 24 24 25 25 24 24 22
38 39 38 37 36 37 37 39 39 38 37 36 35 34 34 32 31 31 29 29 29 28 27 26 26 25 25 24 24 23 23 23 23 23 23 24 23 23 24 22 21 20 19
34 37 38 38 37 36 35 37 38 38 37 37 36 35 34 33 33 32 32 31 31 31 30 29 28 28 27 27 26 25 23 24 24 23 22 21 20 21 20 20 22 23 25
30 33 37 38 37 37 36 37 38 38 37 38 37 35 35 33 32 33 33 33 33 33 32 32 31 30 31 29 27 26 25 24 23 20 21 19 19 19 21 24 24 24 25
28 32 34 37 37 37 37 36 37 39 38 37 37 36 35 34 33 33 34 34 34 34 33 32 31 29 27 26 25 24 24 22 20 21 21 21 22 21 20 23 25 26 24
27 30 32 35 36 38 38 38 36 39 37 37 36 35 34 33 33 33 33 34 35 34 33 32 30 29 29 27 25 24 23 23 20 20 22 23 26 26 24 27 25 25 25
27 29 32 34 37 37 39 37 37 39 38 37 37 36 36 35 34 34 34 35 35 34 34 33 31 31 30 31 31 30 28 26 23 21 22 28 28 28 27 26 26 25 25
27 28 30 33 35 36 37 36 38 39 38 37 37 37 36 36 36 36 36 36 35 33 32 33 32 31 30 30 30 29 28 28 29 29 29 28 27 27 27 28 27 27 27
Wind_Direction
321 318 317 315 313 311 309 306 303 300 298 296 295 293 292 292 292 272 277 279 281 281 291 295 272 279 264 254 266 272 278 282 284 294 303 315 320 321 324 323 323 320 318
324 322 319 317 314 311 309 307 305 301 298 294 291 289 288 289 290 265 267 269 272 270 270 258 261 271 255 235 244 241 259 273 283 287 300 308 314 319 320 320 321 323 323
326 324 323 320 317 314 312 309 307 303 299 295 290 287 285 283 283 265 261 261 262 259 253 257 260 245 219 232 203 208 251 272 283 289 298 306 311 315 315 322 322 323 324
331 329 326 324 321 317 315 312 308 305 300 296 291 285 284 280 277 268 257 257 256 255 248 248 252 237 231 215 216 232 249 270 284 291 298 303 307 313 315 317 317 325 324
337 336 332 330 327 323 320 317 313 308 303 298 292 287 282 278 274 268 253 251 247 247 241 240 241 225 213 206 226 239 252 279 286 291 294 300 304 308 313 318 318 323 326
341 341 339 336 333 330 327 323 319 313 308 301 294 286 281 277 273 263 250 247 245 242 237 237 236 217 220 218 228 227 251 275 289 293 295 299 302 308 313 318 321 321 322
343 342 341 340 337 336 334 332 327 324 319 311 299 290 282 277 272 257 245 243 239 235 227 228 223 218 214 228 237 244 270 290 298 295 296 300 302 311 317 317 319 320 320
350 346 344 343 342 344 342 341 339 332 329 324 317 302 287 279 269 253 241 239 235 230 223 214 215 213 214 217 231 251 277 296 306 296 297 301 307 312 315 317 317 317 318
353 353 347 349 349 349 351 351 349 342 339 333 326 320 311 297 270 244 230 231 227 220 211 210 214 219 210 216 232 258 282 299 312 302 306 306 310 312 314 315 313 315 316
359 360 3 3 0 356 354 359 360 357 349 345 339 335 328 318 304 249 225 221 215 192 205 193 200 196 216 228 253 265 285 294 298 295 300 305 308 311 312 315 315 314 319
5 15 13 14 6 3 6 6 8 4 355 352 346 346 342 336 334 311 249 211 207 207 204 206 221 221 219 254 268 298 298 301 296 297 301 306 311 314 317 319 320 319 319
12 14 18 22 16 15 15 10 11 3 356 351 350 352 349 345 335 317 298 211 202 209 205 200 219 239 256 280 296 293 297 302 301 305 300 309 307 312 317 317 321 318 317
11 13 17 22 27 31 12 13 15 19 3 356 354 353 350 355 351 353 347 26 33 213 259 255 290 295 293 287 295 303 311 308 305 307 302 309 311 314 317 320 319 323 321
8 10 17 17 21 26 31 41 10 11 15 8 358 353 353 354 354 353 351 340 328 320 304 313 313 305 308 315 318 317 320 313 310 306 311 314 314 315 318 322 320 322 324
10 10 11 15 17 23 31 33 44 357 355 358 357 354 352 352 349 355 355 339 341 342 344 342 343 344 338 331 328 321 317 315 313 312 313 317 317 319 319 322 322 324 323
8 9 9 9 12 20 26 34 38 36 37 31 347 351 349 353 351 351 349 349 347 348 359 352 345 342 328 323 324 324 323 323 321 318 316 319 318 319 319 318 319 317 318
8 9 9 9 10 11 16 22 24 31 19 21 20 345 346 347 351 351 350 350 352 353 354 349 345 339 332 327 325 322 319 319 320 320 317 315 316 316 315 315 316 317 314
11 9 9 10 10 8 9 10 11 14 10 348 352 358 355 353 348 348 347 349 348 346 345 345 340 333 327 319 315 314 314 314 315 315 316 315 315 314 314 314 313 313 315
10 9 10 10 10 11 8 9 11 7 4 359 352 357 348 350 353 352 353 352 344 341 339 336 336 333 327 324 321 320 319 318 317 317 315 314 316 315 313 313 313 315 320
11 9 9 9 8 8 8 3 3 4 1 354 353 351 347 350 349 346 346 344 344 341 337 334 335 332 329 326 324 322 321 321 320 319 320 320 319 319 317 318 320 320 320
13 11 9 8 5 4 5 4 359 356 357 355 350 344 339 346 344 343 341 338 337 336 333 333 330 327 325 322 320 321 323 322 322 322 325 324 328 323 325 323 316 306 296
16 12 9 6 6 2 0 357 355 356 352 348 347 345 340 350 354 350 341 335 331 330 329 327 325 323 320 321 321 319 318 319 320 328 327 330 328 325 318 308 300 296 284
14 11 8 6 5 3 1 358 352 347 346 347 346 344 343 344 348 348 341 337 336 335 333 331 328 329 331 329 326 324 320 320 324 324 322 321 318 315 314 302 286 269 263
9 8 7 4 3 0 358 355 355 349 347 346 348 348 345 347 350 351 347 341 334 330 331 331 331 326 324 327 332 327 321 319 321 321 318 311 296 289 286 269 261 251 246
2 3 3 1 358 356 352 351 349 347 344 340 340 339 339 345 351 351 347 340 330 320 318 320 321 317 318 312 308 306 307 306 311 313 309 280 257 258 256 249 244 245 243
1 2 2 1 358 356 352 351 347 342 339 336 335 335 336 339 343 340 338 330 319 311 310 318 310 302 297 300 300 293 282 272 267 266 258 246 239 237 238 237 237 238 235